{"data":{"norad_id":47352,"intl_designator":"2021-005D","name":"STARLINK-2034","alt_names":[],"object_type":"PAYLOAD","status":"ACTIVE","operator":null,"country":"US","launch_date":"2021-01-20","launch_site_code":"AFETR","launch_vehicle":null,"mission":null,"orbit_class":"UNKNOWN","rcs_meters":null,"size_class":null,"mass_kg":null,"dimensions":null,"purposes":["comms"],"wikipedia_slug":null,"has_3d_model":false,"image_url":null,"decayed_at":null,"tle_current":{"epoch":"2026-05-25T03:11:58.560288Z","epoch_age_seconds":60210,"freshness":"FRESH","line1":"1 47352U 21005D   26145.13331667  .00003640  00000+0  12899-3 0  9991","line2":"2 47352  53.1597  57.1849 0001295  84.9810 275.1339 15.31707364294882","mean_motion":15.31707364,"eccentricity":0.0001295,"inclination_deg":53.1597,"raan_deg":57.1849,"arg_perigee_deg":84.981,"mean_anomaly_deg":275.1339,"bstar":0.00012899,"rev_number":29488,"period_min":94.01273597324,"perigee_km":469.83111688464,"apogee_km":471.60497034093,"semimajor_km":6848.8550436128,"source":"CELESTRAK","updated_at":"2026-05-25T13:38:16.523712Z"}}}